Flag for Australia Weather past 2 weeks in Mudgee, New South Wales, Australia

Now
67 °F

Mild.


Feels Like: 67 °F
Forecast: 48 / 76 °F
Wind: 5 mph from Southwest

Location: Mudgee Aws

Current Time: Mar 5, 2015 at 9:52:10 PM

Latest Report: Mar 5, 2015 at 9:00 PM


Visibility: N/A

Pressure: 29.85 "Hg

Humidity: 18%

Dew point: 22 °F

Location of MudgeeLocation

Historic Weather in Mudgee — Graph

°F

Mudgee temperature yesterday

Maximum temperature yesterday: 92 °F (at 4:00 PM)
Minimum temperature yesterday: 69 °F (at 7:00 AM)
Average temperature yesterday: 80 °F

Past Weeks' High & Low Weather Summary

 TemperatureHumidityPressure
High96 °F (Mar 1, 4:00 PM)98% (Feb 27, 6:00 AM)30.11 "Hg (Feb 27, 6:00 AM)
Low57 °F (Mar 3, 7:00 AM)20% (Mar 4, 7:00 PM)29.64 "Hg (Feb 26, 6:00 PM)
Average74 °F60%29.88 "Hg
* Reported Feb 18 7:00 PM — Mar 5 7:00 PM, Mudgee, Weather by CustomWeather, © 2015

Note: Actual official high and low records may vary slightly from our data, if they occured in-between our weather recording intervals... More about our weather records

Advertising

Mudgee weather history for previous 24 hours

 ConditionsComfort  
Time TempWeatherWind HumidityBarometerVisibility
7:00 PM
Thu, Mar 5
74 °FMild.15 mph23%29.80 "HgN/A
6:00 PM77 °FMild.16 mph26%29.78 "HgN/A
4:00 PM78 °FPleasantly warm.15 mph29%29.78 "HgN/A
3:00 PM78 °FPleasantly warm.16 mph29%29.79 "HgN/A
1:00 PM75 °FMild.17 mph30%29.81 "HgN/A
12:00 PM75 °FMild.18 mph31%29.83 "HgN/A
10:00 AM72 °FMild.20 mph34%29.83 "HgN/A
9:00 AM71 °FMild.10 mph32%29.82 "HgN/A
7:00 AM62 °FMild.1 mph41%29.78 "HgN/A
6:00 AM64 °FMild.3 mph42%29.76 "HgN/A
4:00 AM65 °FMild.3 mph40%29.75 "HgN/A
3:00 AM69 °FPassing clouds.5 mph35%29.77 "HgN/A
1:00 AM66 °FMild.No wind51%29.80 "HgN/A
12:00 AM71 °FMild.1 mph41%29.80 "HgN/A
10:00 PM
Wed, Mar 4
79 °FPleasantly warm.6 mph29%29.81 "HgN/A
9:00 PM79 °FPleasantly warm.6 mph30%29.80 "HgN/A
Weather by CustomWeather, © 2015

See weather overviewHow to use our weather pages